Regional Weather Roundup
Issued by NWS

Home | Current Version | Previous Version | Graphics & Text | Print | Product List | Glossary On
Versions: 1 2 3 4 5 6 7 8 9 10 11 12 13 14 15 16 17 18 19 20 21 22 23 24 25 26 27 28 29 30 31 32 33 34 35 36 37 38 39 40 41 42 43 44 45 46 47 48 49 50
000
ASUS43 KTOP 312059
RWRKS

WEATHER ROUNDUP FOR KANSAS
NATIONAL WEATHER SERVICE GOODLAND KS
400 PM CDT THU JUL 31 2014

NOTE:  "FAIR" INDICATES FEW OR NO CLOUDS BELOW 12,000 FEET WITH NO
SIGNIFICANT WEATHER AND/OR OBSTRUCTIONS TO VISIBILITY.

KSZ001>006-013>018-027>032-041>047-312200-
NORTHWEST KANSAS

CITY           SKY/WX    TMP DP  RH WIND       PRES   REMARKS
GOODLAND       MOSUNNY   83  48  29 MISG      30.19F
HAYS           MOSUNNY   84  54  34 NE3       30.10F
HILL CITY      MOSUNNY   91  48  22 VRB7      30.09F
RUSSELL        MOSUNNY   85  55  35 SE3       30.08F
$$

KSZ061>065-074>080-084>089-312200-
SOUTHWEST KANSAS

CITY           SKY/WX    TMP DP  RH WIND       PRES   REMARKS
DODGE CITY     SUNNY     83  52  34 MISG      30.15F
ELKHART          N/A     77  53  43 NW6         N/A
GARDEN CITY    MOSUNNY   80  51  36 VRB3      30.16F
GREAT BEND       N/A     81  57  44 E7        30.10F
LIBERAL        MOSUNNY   79  52  38 N7        30.18F
$$

KSZ066>073-081>083-090>101-312200-
SOUTHEAST KANSAS

CITY           SKY/WX    TMP DP  RH WIND       PRES   REMARKS
CHANUTE        MOSUNNY   82  59  45 NE3       30.07F
COFFEYVILLE    CLOUDY    81  63  54 N9        30.06F
HUTCHINSON     MOSUNNY   82  54  37 CALM      30.10F
NEWTON         MOSUNNY   82  52  34 SE5       30.12F
PARSONS        CLOUDY    81  62  52 CALM      30.08F
WICHITA INTL   MOSUNNY   83  56  39 VRB5      30.08F
WICHITA JABRA  MOSUNNY   83  57  41 NE7       30.08F
WINFIELD       PTSUNNY   80  62  54 E7        30.09F
$$

KSZ007>012-019>026-033>040-048>060-102>105-312200-
NORTHEAST KANSAS

CITY           SKY/WX    TMP DP  RH WIND       PRES   REMARKS
CONCORDIA      SUNNY     85  54  34 CALM      30.05F
EMPORIA        MOSUNNY   82  51  34 E8        30.07F
LAWRENCE       SUNNY     86  56  35 CALM      30.07F
MANHATTAN      SUNNY     84  49  29 VRB3      30.06F
OLATHE IND     CLOUDY    85  55  35 NE7       30.07F
OLATHE EXE     MOSUNNY   82  55  39 E6        30.07F
SALINA         SUNNY     88  51  28 NE8       30.07F
TOPEKA BILLARD SUNNY     86  53  32 NE6       30.06F
TOPEKA FORBES  SUNNY     84  51  31 VRB5      30.07F
$$



USA.gov is the U.S. government's official web portal to all federal, state and local government web resources and services.